Regional Weather Roundup
Issued by NWS

Home | Current Version | Previous Version | Graphics & Text | Print | Product List | Glossary Off
Versions: 1 2 3 4 5 6 7 8 9 10 11 12 13 14 15 16 17 18 19 20 21 22 23 24 25 26 27 28 29 30 31 32 33 34 35 36 37 38 39 40 41 42 43 44 45 46 47 48 49 50

000
ASUS43 KMKX 201700
RWRWI

WISCONSIN REGIONAL WEATHER ROUNDUP
NATIONAL WEATHER SERVICE MILWAUKEE/SULLIVAN WI
1200 PM CDT SUN APR 20 2014

NOTE: "FAIR" INDICATES FEW OR NO CLOUDS BELOW 12,000 FEET WITH NO
SIGNIFICANT WEATHER AND/OR OBSTRUCTIONS TO VISIBILITY.

WIZ001-002-006>008-014>016-023>028-201800-
NORTHWEST WISCONSIN

CITY           SKY/WX    TMP DP  RH WIND       PRES   REMARKS
SUPERIOR ARPT  SUNNY     54  39  55 CALM      30.05S
ASHLAND        SUNNY     56  41  57 N3        30.05S
HAYWARD        SUNNY     63  40  42 VRB5      30.04S
SIREN          SUNNY     60  39  47 CALM      30.05S
RICE LAKE      SUNNY     64  42  44 CALM      30.06S
LADYSMITH      SUNNY     64  51  62 SE5       30.06S
EAU CLAIRE     NOT AVBL
MENOMONIE      PTSUNNY   64  52  64 S8        30.05S
NEW RICHMOND   SUNNY     65  47  52 SE5       30.04S
OSCEOLA        SUNNY     66  42  40 SE3       30.06S
$$

WIZ003>005-009-010-017-018-201800-
NORTH CENTRAL WISCONSIN

CITY           SKY/WX    TMP DP  RH WIND       PRES   REMARKS
WOODRUFF       SUNNY     62  46  55 S5        30.04F
RHINELANDER    NOT AVBL
EAGLE RIVER    SUNNY     59  43  55 SW8       30.05S
LAND O LAKES   SUNNY     62  39  43 SW7       30.05S
PHILLIPS       SUNNY     63  48  59 SW5       30.04S
TOMAHAWK       CLOUDY    56  46  70 CALM      30.07S
MEDFORD        PTSUNNY   58  51  78 S8        30.06F
MERRILL        CLOUDY    57  49  74 CALM      30.07F
$$

WIZ029-030-035-036-043>047-201800-
CENTRAL WISCONSIN

CITY           SKY/WX    TMP DP  RH WIND       PRES   REMARKS
WAUSAU         PTSUNNY   58  50  75 SW14      30.07S
MOSINEE        PTSUNNY   55  52  88 S10       30.10R
MARSHFIELD     CLOUDY    59  50  72 SW12      30.08S
STEVENS POINT  PTSUNNY   51  47  83 S9        30.11R
WAUPACA        RAIN      55  46  71 CALM      30.13S
WAUTOMA        NOT AVBL
WISC RAPIDS    LGT RAIN  52  49  89 S7        30.11S
CAMP DOUGLAS   NOT AVBL
$$

WIZ011>013-019>022-031-037>040-048>050-201800-
NORTHEAST WISCONSIN

CITY           SKY/WX    TMP DP  RH WIND       PRES   REMARKS
ANTIGO         PTSUNNY   54  49  81 SW8       30.09S
STURGEON BAY   CLOUDY    39  34  81 S12       30.14F WCI  32
GREEN BAY      LGT RAIN  51  46  83 S7        30.13F
MANITOWOC      NOT AVBL
APPLETON       CLOUDY    52  43  71 CALM      30.13F
CLINTONVILLE   LGT RAIN  50  46  87 S5        30.11F
OSHKOSH        CLOUDY    59  41  51 S9        30.12F
$$

WIZ032>034-041-042-053>061-201800-
SOUTHWEST WISCONSIN

CITY           SKY/WX    TMP DP  RH WIND       PRES   REMARKS
LA CROSSE      LGT RAIN  55  51  86 S6        30.09S
SPARTA         DRIZZLE   55  50  85 SW3       30.12R
VIROQUA        CLOUDY    54  49  84 S6        30.10F
BOSCOBEL       CLOUDY    67  48  50 SW7       30.11S
PRAIRIE DU CHI CLOUDY    61  49  65 E3        30.11S
PLATTEVILLE    FAIR      71  42  35 S10       30.12F
$$

WIZ056-057-062-063-064-067-068-201800-
SOUTH CENTRAL WISCONSIN

CITY           SKY/WX    TMP DP  RH WIND       PRES   REMARKS
BARABOO/DELLS  CLOUDY    62  40  44 W7        30.12S
LONE ROCK      NOT AVBL
WATERTOWN      PTSUNNY   66  42  41 S12       30.13F
MADISON        MOSUNNY   68  41  37 S9        30.12S
MIDDLETON      PTSUNNY   70  37  29 SW9G16    30.12S
MONROE         MOSUNNY   69  41  36 S13       30.13S
JANESVILLE     PTSUNNY   72  37  28 SW12G17   30.13F
$$

WIZ051-052-058>065-066-070>072-201800-
SOUTHEAST WISCONSIN

CITY           SKY/WX    TMP DP  RH WIND       PRES   REMARKS
MILWAUKEE      PTSUNNY   70  38  31 S15       30.15F
WAUKESHA       MOSUNNY   66  37  34 SW9G16    30.16F
MILWAUKEE/TIMM SUNNY     64  34  32 SW8       30.16F
RACINE         MOSUNNY   59  36  42 SE10      30.18F
BURLINGTON     MOSUNNY   70  38  31 SW15      30.15F
KENOSHA        MOSUNNY   71  40  32 SW12      30.15F
FOND DU LAC    PTSUNNY   64  41  42 SW9       30.12S
SHEBOYGAN      CLOUDY    54  41  61 SE9       30.14F
WEST BEND      PTSUNNY   68  36  30 S10       30.14F
JUNEAU         CLOUDY    65  35  32 S15       30.14F
$$

LSZ147-162-201800-
LAKE SUPERIOR

STATION/POSITION TIME  TEMP    WIND        PRES    WAVE
                       AIR SEA DIR/SP/G            HT/PER
                 (UTC) (F)     (DEG/KT/KT) (MB)    (FT/S)
DEVILS ISLAND    1600   38     230/  8/  9 1018.3F
PORT WING        1600   40      40/  3/  4 1017.9R
SAXON HARBOR     1600             CALM     1017.6S
$$

LMZ867-665-643>646-201800-
LAKE MICHIGAN

STATION/POSITION TIME  TEMP    WIND        PRES    WAVE
                       AIR SEA DIR/SP/G            HT/PER
                 (UTC) (F)     (DEG/KT/KT) (MB)    (FT/S)
NORTHPORT PIER   1600   38     170/  8/ 18 1020.7S
SISTER BAY       1509   37     190/ 20/ 28   N/A
KEWAUNEE LAKESHO 1600   39     180/ 15/ 17 1021.9R
SHEBOYGAN LAKESH 1600   41     180/ 17/ 18 1021.8F
PORT WASHINGTON  1600   43     190/  6/ 10 1022.0
MILWAUKEE LAKESH 1600   42     150/ 16/ 18   N/A
KENOSHA   LAKESH 1600   43     170/ 11/ 13   N/A
$$

TC  - TEMPERATURE IN CELSIUS
VSB - VISIBILITY IN STATUTE MILES
WCI - WIND CHILL INDEX
HX  - HEAT INDEX




USA.gov is the U.S. government's official web portal to all federal, state and local government web resources and services.